STARLINK-31158, 58854

Orbit data source: Space-Track

STARLINK-31158, 58854 is a payload satellite owned by SpaceX/Seattle (US) in LEO that was launched on Mon, 29 Jan 2024 UTC via an FALCON 9 launch vehicle from the Air Force Eastern Test Range (AFETR). Payload-class satellites include a variety of spacecraft equipped with specific instruments for various scientific and technological missions. These include communications satellites like Starlink; space stations such as the ISS; scientific satellites like the Hubble; Earth observation satellites from companies like Planet Labs, Umbra, and HawkEye 360; GPS; miniature CubeSats for education and research; and military/defense satellites.

Loading next visibility...
Identifier
58854, 2024-019B
Orbit
LEO
Country
Flag of USUS
Related business
Manufacturer
SpaceX/Seattle
Mission
Operational Commercial Communications
Bus & Motor
STARLINK V2M, Unknown motor
Mass
730 kg wet, ~700 kg dry
Launch date (UTC)
2024-01-29 (2 years ago)
Launch vehicle
FALCON 9
Launch site
Air Force Eastern Test Range (AFETR)
Object type
Payload
Rocket body
Debris
Shape & HBR
Box + 2 Pan, 17.7 m
Radar Cross Section
33.884 m², Large (>1 m²)

Expand to show TLE details & history
Last TLE update: 2 days ago

TLE from 2 days ago
0 STARLINK-31158
1 58854U 24019B   26171.01730571  .00001022  00000-0  46675-4 0  9994
2 58854  43.0008  30.8927 0001328 263.4016  96.6684 15.27576945134730
Epoch: 2026-06-20T00:24Z
TLE epoch observation values (Epoch: 2026-06-20T00:24:55.213Z)
Latitude
-0.00005°
Longitude
116.42463°
Altitude
482.94 km
Speed
7.626 km/s
True Right ascension
02h 03m 34s
True Declination
0° 00' 00"
Sunlit
Object was in daylight at epoch
Visualization orbit readout
Latitude
Unknown
Longitude
Unknown
Altitude
Unknown
Speed
Unknown
Apparent Right ascension
Unknown
Apparent Declination
Unknown
Sunlit
N/A
Visualization observer readout
Local Sidereal Time
21:29:24
Azimuth
Unknown
Elevation
Unknown
Doppler factor
Unknown
Orbital elements
Apogee altitude
485.915 km
Perigee altitude
484.092 km
Semi-major axis
6,863.14 km
Eccentricity
0.00013
Inclination
43.0008°
RAAN
30.8927°
Arg. of periapsis
263.4016°
True anomaly
96.68351°
Mean anomaly
96.6684°
Eccentric anomaly
96.67596°
Mean motion
3.81732 °/min
Orbital period
94.31 mins
BSTAR
0.000046675
Loading maneuver chart data...
Computing Atmospheric mass density...
Loading historical data...
Loading historical data...
Loading historical data...
Loading historical data...
Loading historical data...
Loading historical data...
Loading historical data...

Documentation

Showing up to 5 results
|